Weather in Nakhon Pathom

Thailand     13°49′13″N   100°03′43″E
temp.,
°C
wind,
m/s
gust,
m/s
humid.,
%
clouds,
%
prec.,
mm/h
press.,
hPa
HPBL,
m
21 june, mon
mon2101:00+28wsw386672 0.0 1008339
04:00+26wsw277456 0.0 1007205
07:00+27w367239 0.0 1008258
10:00+33w574995 0.0 10081250
13:00+38w453569 0.0 10062709
16:00+27s8108298 1.6 1004334
19:00+26s5108559 4.3 1005298
22:00+27wsw4773100 0.0 1008206
22 june, tue
tue2201:00+26w2370100 0.0 100883
04:00+26w237289 0.0 100763
07:00+27wsw2470100 0.0 1009163
10:00+33w464926 0.0 10091379
13:00+37w3536100 0.0 10062501
16:00+31s5756100 0.2 1005290
19:00+30s4865100 0.2 1006310
22:00+28wsw376250 0.0 1009272
23 june, wed
wed2301:00+26wsw386811 0.0 1008271
04:00+25wsw267385 0.0 1007179
07:00+27wsw37697 0.0 1009343
10:00+33wsw564780 0.0 10101406
13:00+37w453699 0.1 10072683
16:00+32ssw365093 0.1 1005389
19:00+31w7104931 0.1 1007812
22:00+28w5962100 0.0 1009604
24 june, thu
thu2401:00+27w41063100 0.0 1008719
04:00+26wsw3767100 0.0 1007330
07:00+27wsw3864100 0.0 1008579
10:00+30w4755100 0.0 10091233
13:00+32wsw7748100 0.0 10061573
16:00+33w7748100 0.0 10051455
19:00+29w4758100 0.0 1006323
22:00+27w2567100 0.0 1008135
25 june, fri
fri2501:00+26wsw2471100 0.0 100698
04:00+25sw2575100 0.0 1005136
07:00+26sw2572100 0.0 1006219
10:00+32wsw455395 0.0 10071356
13:00+35w564388 0.0 10052163
16:00+34wsw6645100 0.2 10031610
19:00+30sw5855100 0.2 1004408
22:00+28sw4863100 0.0 1007356